Time,TemperatureF,DewpointF,PressureIn,WindDirection,WindDirectionDegrees,WindSpeedMPH,WindSpeedGustMPH,Humidity,HourlyPrecipIn,Conditions,Clouds,dailyrainin,SoftwareType,DateUTC
2013-06-02 00:03:00,70.0,68.2,29.90,North,360,0.0,0.0,94,0.00,,,0.00,Wunderground v.1.15,2013-06-02 04:03:00,
2013-06-02 00:08:00,69.9,68.1,29.90,North,360,0.0,0.0,94,0.00,,,0.00,Wunderground v.1.15,2013-06-02 04:08:00,
2013-06-02 00:14:00,69.7,68.0,29.90,North,360,0.0,-999.0,95,-99.99,,,0.00,weatherlink.com 1.10,2013-06-02 04:14:00,
2013-06-02 00:18:00,69.7,68.2,29.90,North,360,0.0,0.0,95,0.00,,,0.00,Wunderground v.1.15,2013-06-02 04:18:00,
2013-06-02 00:23:00,69.6,68.1,29.90,North,360,0.0,0.0,95,0.00,,,0.00,Wunderground v.1.15,2013-06-02 04:23:00,
2013-06-02 00:29:00,69.4,68.0,29.90,North,360,0.0,-999.0,95,-99.99,,,0.00,weatherlink.com 1.10,2013-06-02 04:29:00,
2013-06-02 00:38:00,69.2,68.0,29.90,North,360,0.0,0.0,96,0.00,,,0.00,Wunderground v.1.15,2013-06-02 04:38:00,
2013-06-02 00:44:00,69.0,68.0,29.89,North,360,0.0,-999.0,96,-99.99,,,0.00,weatherlink.com 1.10,2013-06-02 04:44:00,
2013-06-02 00:53:00,68.8,67.6,29.90,North,360,0.0,0.0,96,0.00,,,0.00,Wunderground v.1.15,2013-06-02 04:53:00,
2013-06-02 00:58:00,68.8,67.9,29.89,North,360,0.0,0.0,97,0.00,,,0.00,Wunderground v.1.15,2013-06-02 04:58:00,
2013-06-02 01:08:00,68.6,67.7,29.89,North,360,0.0,0.0,97,0.00,,,0.00,Wunderground v.1.15,2013-06-02 05:08:00,
2013-06-02 01:13:00,68.6,67.7,29.89,North,360,0.0,0.0,97,0.00,,,0.00,Wunderground v.1.15,2013-06-02 05:13:00,
2013-06-02 01:23:00,68.5,67.6,29.89,North,360,0.0,0.0,97,0.00,,,0.00,Wunderground v.1.15,2013-06-02 05:23:00,
2013-06-02 01:28:00,68.4,67.5,29.88,North,360,0.0,0.0,97,0.00,,,0.00,Wunderground v.1.15,2013-06-02 05:28:00,
2013-06-02 01:33:00,68.4,67.5,29.88,North,360,0.0,0.0,97,0.00,,,0.00,Wunderground v.1.15,2013-06-02 05:33:00,
2013-06-02 01:43:00,68.2,67.3,29.88,North,360,0.0,0.0,97,0.00,,,0.00,Wunderground v.1.15,2013-06-02 05:43:00,
2013-06-02 01:48:00,68.0,67.4,29.88,North,360,0.0,0.0,98,0.00,,,0.00,Wunderground v.1.15,2013-06-02 05:48:00,
2013-06-02 01:58:00,67.9,67.3,29.87,NNE,28,0.0,0.0,98,0.00,,,0.00,Wunderground v.1.15,2013-06-02 05:58:00,
2013-06-02 02:03:00,67.8,67.2,29.87,NNE,28,0.0,0.0,98,0.00,,,0.00,Wunderground v.1.15,2013-06-02 06:03:00,
2013-06-02 02:08:00,67.7,67.1,29.87,NNE,28,0.0,0.0,98,0.00,,,0.00,Wunderground v.1.15,2013-06-02 06:08:00,
2013-06-02 02:14:00,67.6,67.0,29.87,NNE,28,0.0,-999.0,99,-99.99,,,0.00,weatherlink.com 1.10,2013-06-02 06:14:00,
2013-06-02 02:23:00,67.5,67.2,29.87,NNE,28,0.0,0.0,99,0.00,,,0.00,Wunderground v.1.15,2013-06-02 06:23:00,
2013-06-02 02:28:00,67.5,67.2,29.87,NNE,28,0.0,0.0,99,0.00,,,0.00,Wunderground v.1.15,2013-06-02 06:28:00,
2013-06-02 02:38:00,67.4,67.1,29.86,NNE,28,0.0,0.0,99,0.00,,,0.00,Wunderground v.1.15,2013-06-02 06:38:00,
2013-06-02 02:43:00,67.4,67.1,29.86,NNE,28,0.0,0.0,99,0.00,,,0.00,Wunderground v.1.15,2013-06-02 06:43:00,
2013-06-02 02:48:00,67.4,67.1,29.86,NNE,28,0.0,0.0,99,0.00,,,0.00,Wunderground v.1.15,2013-06-02 06:48:00,
2013-06-02 02:58:00,67.4,67.4,29.86,NNE,28,0.0,0.0,100,0.00,,,0.00,Wunderground v.1.15,2013-06-02 06:58:00,
2013-06-02 03:03:00,67.3,67.0,29.86,NNE,28,0.0,0.0,99,0.00,,,0.00,Wunderground v.1.15,2013-06-02 07:03:00,
2013-06-02 03:13:00,67.2,66.9,29.86,NNE,28,0.0,0.0,99,0.00,,,0.00,Wunderground v.1.15,2013-06-02 07:13:00,
2013-06-02 03:18:00,67.2,67.2,29.86,NNE,28,0.0,0.0,100,0.00,,,0.00,Wunderground v.1.15,2013-06-02 07:18:00,
2013-06-02 03:28:00,67.0,67.0,29.86,NNE,28,0.0,0.0,100,0.00,,,0.00,Wunderground v.1.15,2013-06-02 07:28:00,
2013-06-02 03:33:00,67.0,67.0,29.86,NNE,28,0.0,0.0,100,0.00,,,0.00,Wunderground v.1.15,2013-06-02 07:33:00,
2013-06-02 03:38:00,66.9,66.9,29.86,NNE,28,0.0,0.0,100,0.00,,,0.00,Wunderground v.1.15,2013-06-02 07:38:00,
2013-06-02 03:44:00,66.9,67.0,29.85,NNE,28,0.0,-999.0,100,-99.99,,,0.00,weatherlink.com 1.10,2013-06-02 07:44:00,
2013-06-02 03:53:00,66.8,66.8,29.85,NNE,28,0.0,0.0,100,0.00,,,0.00,Wunderground v.1.15,2013-06-02 07:53:00,
2013-06-02 03:59:00,66.7,67.0,29.85,NNE,28,0.0,-999.0,100,-99.99,,,0.00,weatherlink.com 1.10,2013-06-02 07:59:00,
2013-06-02 04:08:00,66.6,66.6,29.85,NNE,28,0.0,0.0,100,0.00,,,0.00,Wunderground v.1.15,2013-06-02 08:08:00,
2013-06-02 04:13:00,66.5,66.5,29.85,NNE,28,0.0,0.0,100,0.00,,,0.00,Wunderground v.1.15,2013-06-02 08:13:00,
2013-06-02 04:23:00,66.3,66.3,29.85,NNE,28,0.0,0.0,100,0.00,,,0.00,Wunderground v.1.15,2013-06-02 08:23:00,
2013-06-02 04:28:00,66.2,66.2,29.85,NNE,28,0.0,0.0,100,0.00,,,0.00,Wunderground v.1.15,2013-06-02 08:28:00,
2013-06-02 04:33:00,66.1,66.1,29.85,NNE,28,0.0,0.0,100,0.00,,,0.00,Wunderground v.1.15,2013-06-02 08:33:00,
2013-06-02 04:43:00,65.9,65.9,29.86,NNE,28,0.0,0.0,100,0.00,,,0.00,Wunderground v.1.15,2013-06-02 08:43:00,
2013-06-02 04:59:00,65.7,66.0,29.86,NNE,28,0.0,-999.0,100,-99.99,,,0.00,weatherlink.com 1.10,2013-06-02 08:59:00,
2013-06-02 05:14:00,65.5,66.0,29.86,NNE,28,0.0,-999.0,100,-99.99,,,0.00,weatherlink.com 1.10,2013-06-02 09:14:00,
2013-06-02 05:29:00,65.3,65.0,29.86,NNE,28,0.0,-999.0,100,-99.99,,,0.00,weatherlink.com 1.10,2013-06-02 09:29:00,
2013-06-02 05:44:00,65.2,65.0,29.86,ENE,57,0.0,-999.0,100,-99.99,,,0.00,weatherlink.com 1.10,2013-06-02 09:44:00,
2013-06-02 05:59:00,65.2,65.0,29.85,South,172,0.0,-999.0,100,-99.99,,,0.00,weatherlink.com 1.10,2013-06-02 09:59:00,
2013-06-02 06:14:00,65.2,65.0,29.85,East,98,0.0,-999.0,100,-99.99,,,0.00,weatherlink.com 1.10,2013-06-02 10:14:00,
2013-06-02 06:29:00,65.4,65.0,29.85,ENE,78,0.0,-999.0,100,-99.99,,,0.00,weatherlink.com 1.10,2013-06-02 10:29:00,
2013-06-02 06:44:00,65.7,66.0,29.85,ENE,78,0.0,-999.0,100,-99.99,,,0.00,weatherlink.com 1.10,2013-06-02 10:44:00,
2013-06-02 06:59:00,66.1,66.0,29.85,ENE,78,0.0,-999.0,100,-99.99,,,0.00,weatherlink.com 1.10,2013-06-02 10:59:00,
2013-06-02 07:14:00,66.9,67.0,29.85,SW,236,0.0,-999.0,100,-99.99,,,0.00,weatherlink.com 1.10,2013-06-02 11:14:00,
2013-06-02 07:29:00,67.6,68.0,29.85,South,187,0.0,-999.0,100,-99.99,,,0.00,weatherlink.com 1.10,2013-06-02 11:29:00,
2013-06-02 07:44:00,68.4,68.0,29.85,ESE,117,0.0,-999.0,98,-99.99,,,0.00,weatherlink.com 1.10,2013-06-02 11:44:00,
2013-06-02 07:59:00,69.2,68.0,29.85,East,84,0.0,-999.0,97,-99.99,,,0.00,weatherlink.com 1.10,2013-06-02 11:59:00,
2013-06-02 08:14:00,70.5,69.0,29.85,East,91,0.0,-999.0,95,-99.99,,,0.00,weatherlink.com 1.10,2013-06-02 12:14:00,
2013-06-02 08:29:00,72.2,70.0,29.85,NNE,15,0.0,-999.0,93,-99.99,,,0.00,weatherlink.com 1.10,2013-06-02 12:29:00,
2013-06-02 08:44:00,73.8,70.0,29.85,ESE,114,0.0,-999.0,89,-99.99,,,0.00,weatherlink.com 1.10,2013-06-02 12:44:00,
2013-06-02 08:59:00,75.2,72.0,29.84,SSW,206,0.0,-999.0,89,-99.99,,,0.00,weatherlink.com 1.10,2013-06-02 12:59:00,
2013-06-02 09:14:00,76.2,72.0,29.83,NNE,26,0.0,-999.0,86,-99.99,,,0.00,weatherlink.com 1.10,2013-06-02 13:14:00,
2013-06-02 09:29:00,77.1,72.0,29.83,ENE,71,1.0,-999.0,84,-99.99,,,0.00,weatherlink.com 1.10,2013-06-02 13:29:00,
2013-06-02 09:44:00,77.5,73.0,29.83,SW,230,0.0,-999.0,85,-99.99,,,0.00,weatherlink.com 1.10,2013-06-02 13:44:00,
2013-06-02 10:00:00,78.5,73.0,29.83,NNE,32,2.0,-999.0,82,-99.99,,,0.00,weatherlink.com 1.10,2013-06-02 14:00:00,
2013-06-02 10:15:00,79.2,73.0,29.82,SW,236,0.0,-999.0,82,-99.99,,,0.00,weatherlink.com 1.10,2013-06-02 14:15:00,
2013-06-02 10:30:00,79.9,73.0,29.82,NE,50,0.0,-999.0,80,-99.99,,,0.00,weatherlink.com 1.10,2013-06-02 14:30:00,
2013-06-02 10:45:00,80.1,73.0,29.82,East,82,1.0,-999.0,79,-99.99,,,0.00,weatherlink.com 1.10,2013-06-02 14:45:00,
2013-06-02 11:00:00,80.7,73.0,29.82,ESE,112,1.0,-999.0,78,-99.99,,,0.00,weatherlink.com 1.10,2013-06-02 15:00:00,
2013-06-02 11:15:00,81.2,74.0,29.82,SE,128,1.0,-999.0,78,-99.99,,,0.00,weatherlink.com 1.10,2013-06-02 15:15:00,
2013-06-02 11:30:00,81.7,73.0,29.82,ESE,123,0.0,-999.0,76,-99.99,,,0.00,weatherlink.com 1.10,2013-06-02 15:30:00,
2013-06-02 11:45:00,82.7,74.0,29.82,SW,223,1.0,-999.0,76,-99.99,,,0.00,weatherlink.com 1.10,2013-06-02 15:45:00,
2013-06-02 12:00:00,82.3,74.0,29.82,West,281,1.0,-999.0,75,-99.99,,,0.00,weatherlink.com 1.10,2013-06-02 16:00:00,
2013-06-02 12:15:00,82.8,74.0,29.82,NNW,333,0.0,-999.0,75,-99.99,,,0.00,weatherlink.com 1.10,2013-06-02 16:15:00,
2013-06-02 12:30:00,83.6,74.0,29.81,WNW,284,1.0,-999.0,73,-99.99,,,0.00,weatherlink.com 1.10,2013-06-02 16:30:00,
2013-06-02 12:45:00,83.8,74.0,29.81,West,259,2.0,-999.0,73,-99.99,,,0.00,weatherlink.com 1.10,2013-06-02 16:45:00,
2013-06-02 13:00:00,82.0,74.0,29.82,WSW,246,0.0,-999.0,76,-99.99,,,0.00,weatherlink.com 1.10,2013-06-02 17:00:00,
2013-06-02 13:15:00,83.2,74.0,29.80,ENE,75,1.0,-999.0,74,-99.99,,,0.00,weatherlink.com 1.10,2013-06-02 17:15:00,
2013-06-02 13:30:00,84.0,75.0,29.80,SW,233,2.0,-999.0,73,-99.99,,,0.00,weatherlink.com 1.10,2013-06-02 17:30:00,
2013-06-02 13:45:00,84.6,75.0,29.78,SSW,197,3.0,-999.0,72,-99.99,,,0.00,weatherlink.com 1.10,2013-06-02 17:45:00,
2013-06-02 14:00:00,84.7,75.0,29.79,NE,53,2.0,-999.0,72,-99.99,,,0.00,weatherlink.com 1.10,2013-06-02 18:00:00,
2013-06-02 14:15:00,84.3,74.0,29.79,WSW,248,0.0,-999.0,72,-99.99,,,0.00,weatherlink.com 1.10,2013-06-02 18:15:00,
2013-06-02 14:30:00,84.4,74.0,29.79,NNW,336,1.0,-999.0,72,-99.99,,,0.00,weatherlink.com 1.10,2013-06-02 18:30:00,
2013-06-02 14:45:00,84.7,75.0,29.78,SSW,209,0.0,-999.0,72,-99.99,,,0.00,weatherlink.com 1.10,2013-06-02 18:45:00,
2013-06-02 15:00:00,84.5,75.0,29.77,SE,142,0.0,-999.0,73,-99.99,,,0.00,weatherlink.com 1.10,2013-06-02 19:00:00,
2013-06-02 15:15:00,84.3,75.0,29.77,West,281,2.0,-999.0,73,-99.99,,,0.00,weatherlink.com 1.10,2013-06-02 19:15:00,
2013-06-02 15:30:00,84.0,75.0,29.77,East,96,3.0,-999.0,73,-99.99,,,0.00,weatherlink.com 1.10,2013-06-02 19:30:00,
2013-06-02 15:45:00,84.0,75.0,29.77,ENE,68,0.0,-999.0,73,-99.99,,,0.00,weatherlink.com 1.10,2013-06-02 19:45:00,
2013-06-02 16:00:00,84.1,75.0,29.76,SE,132,0.0,-999.0,74,-99.99,,,0.00,weatherlink.com 1.10,2013-06-02 20:00:00,
2013-06-02 16:15:00,83.2,74.0,29.76,East,96,1.0,-999.0,74,-99.99,,,0.00,weatherlink.com 1.10,2013-06-02 20:15:00,
2013-06-02 16:30:00,81.6,73.0,29.76,ESE,122,2.0,-999.0,76,-99.99,,,0.00,weatherlink.com 1.10,2013-06-02 20:30:00,
2013-06-02 16:45:00,80.5,73.0,29.76,SSE,167,0.0,-999.0,78,-99.99,,,0.00,weatherlink.com 1.10,2013-06-02 20:45:00,
2013-06-02 17:00:00,79.0,73.0,29.76,East,101,0.0,-999.0,81,-99.99,,,0.00,weatherlink.com 1.10,2013-06-02 21:00:00,
2013-06-02 17:15:00,78.0,74.0,29.75,South,184,0.0,-999.0,86,-99.99,,,0.00,weatherlink.com 1.10,2013-06-02 21:15:00,
2013-06-02 17:30:00,78.7,74.0,29.75,SSW,198,1.0,-999.0,85,-99.99,,,0.00,weatherlink.com 1.10,2013-06-02 21:30:00,
2013-06-02 17:38:00,78.9,74.0,29.76,ESE,115,0.0,0.0,85,0.00,,,0.00,Wunderground v.1.15,2013-06-02 21:38:00,
2013-06-02 17:43:00,78.9,74.0,29.76,NE,46,0.0,0.0,85,0.00,,,0.00,Wunderground v.1.15,2013-06-02 21:43:00,
2013-06-02 17:53:00,78.7,73.5,29.75,SSE,163,0.0,0.0,84,0.00,,,0.00,Wunderground v.1.15,2013-06-02 21:53:00,
2013-06-02 17:58:00,78.4,73.5,29.75,SSE,156,0.0,0.0,85,0.00,,,0.00,Wunderground v.1.15,2013-06-02 21:58:00,
2013-06-02 18:08:00,77.7,73.2,29.75,SSE,157,0.0,0.0,86,0.00,,,0.00,Wunderground v.1.15,2013-06-02 22:08:00,
2013-06-02 18:13:00,77.3,72.8,29.76,SSE,157,0.0,0.0,86,0.00,,,0.00,Wunderground v.1.15,2013-06-02 22:13:00,
2013-06-02 18:23:00,76.6,72.4,29.76,SSE,157,0.0,0.0,87,0.00,,,0.00,Wunderground v.1.15,2013-06-02 22:23:00,
2013-06-02 18:32:00,76.2,73.0,29.76,SSE,156,0.0,-999.0,88,-99.99,,,0.00,weatherlink.com 1.10,2013-06-02 22:32:00,
2013-06-02 18:38:00,75.9,72.1,29.76,SSE,156,0.0,0.0,88,0.00,,,0.00,Wunderground v.1.15,2013-06-02 22:38:00,
2013-06-02 18:47:00,75.6,72.0,29.77,East,88,1.0,-999.0,89,-99.99,,,0.00,weatherlink.com 1.10,2013-06-02 22:47:00,
2013-06-02 18:53:00,75.5,72.0,29.77,East,88,0.0,0.0,89,0.00,,,0.00,Wunderground v.1.15,2013-06-02 22:53:00,
2013-06-02 18:58:00,75.5,72.0,29.77,ESE,111,0.0,0.0,89,0.00,,,0.00,Wunderground v.1.15,2013-06-02 22:58:00,
2013-06-02 19:08:00,75.5,72.0,29.77,ESE,111,0.0,0.0,89,0.00,,,0.00,Wunderground v.1.15,2013-06-02 23:08:00,
2013-06-02 19:17:00,75.1,71.0,29.77,SSE,165,0.0,-999.0,88,-99.99,,,0.00,weatherlink.com 1.10,2013-06-02 23:17:00,
2013-06-02 19:23:00,74.9,71.1,29.77,SSE,165,0.0,0.0,88,0.00,,,0.00,Wunderground v.1.15,2013-06-02 23:23:00,
2013-06-02 19:28:00,74.7,70.9,29.77,SSE,165,0.0,0.0,88,0.00,,,0.00,Wunderground v.1.15,2013-06-02 23:28:00,
2013-06-02 19:38:00,74.3,70.8,29.77,SSE,152,0.0,0.0,89,0.00,,,0.00,Wunderground v.1.15,2013-06-02 23:38:00,
2013-06-02 19:43:00,74.2,70.7,29.77,SSE,153,0.0,0.0,89,0.00,,,0.00,Wunderground v.1.15,2013-06-02 23:43:00,
2013-06-02 19:48:00,74.0,71.0,29.77,SSE,163,0.0,-999.0,90,-99.99,,,0.00,weatherlink.com 1.10,2013-06-02 23:48:00,
2013-06-02 19:58:00,73.8,70.7,29.78,SSE,163,0.0,0.0,90,0.00,,,0.00,Wunderground v.1.15,2013-06-02 23:58:00,
2013-06-02 20:03:00,73.7,70.6,29.79,SSE,163,0.0,0.0,90,0.00,,,0.00,Wunderground v.1.15,2013-06-03 00:03:00,
2013-06-02 20:08:00,73.5,70.4,29.79,SSE,163,0.0,0.0,90,0.00,,,0.00,Wunderground v.1.15,2013-06-03 00:08:00,
2013-06-02 20:18:00,73.3,70.2,29.79,SSE,161,0.0,0.0,90,0.00,,,0.00,Wunderground v.1.15,2013-06-03 00:18:00,
2013-06-02 20:23:00,73.2,70.1,29.80,SSE,163,0.0,0.0,90,0.00,,,0.00,Wunderground v.1.15,2013-06-03 00:23:00,
2013-06-02 20:33:00,72.9,70.4,29.80,SSE,159,0.0,0.0,92,0.00,,,0.01,Wunderground v.1.15,2013-06-03 00:33:00,
2013-06-02 20:38:00,72.5,70.4,29.80,SSE,159,0.0,0.0,93,0.00,,,0.01,Wunderground v.1.15,2013-06-03 00:38:00,
2013-06-02 20:48:00,71.8,70.3,29.79,SSE,159,0.0,0.0,95,0.04,,,0.02,Wunderground v.1.15,2013-06-03 00:48:00,
2013-06-02 20:58:00,71.2,70.3,29.79,SSE,159,0.0,0.0,97,0.04,,,0.02,Wunderground v.1.15,2013-06-03 00:58:00,
2013-06-02 21:03:00,70.9,70.3,29.79,SSE,159,0.0,0.0,98,0.00,,,0.02,Wunderground v.1.15,2013-06-03 01:03:00,
2013-06-02 21:13:00,70.5,70.2,29.79,SSE,159,0.0,0.0,99,0.00,,,0.02,Wunderground v.1.15,2013-06-03 01:13:00,
2013-06-02 21:18:00,70.4,70.1,29.79,SSE,159,0.0,0.0,99,0.00,,,0.02,Wunderground v.1.15,2013-06-03 01:18:00,
2013-06-02 21:28:00,70.1,70.1,29.80,SSE,159,0.0,0.0,100,0.00,,,0.02,Wunderground v.1.15,2013-06-03 01:28:00,
2013-06-02 21:34:00,69.9,70.0,29.81,SSE,159,0.0,-999.0,100,-99.99,,,0.02,weatherlink.com 1.10,2013-06-03 01:34:00,
2013-06-02 21:43:00,69.7,69.7,29.80,SSE,159,0.0,0.0,100,0.00,,,0.02,Wunderground v.1.15,2013-06-03 01:43:00,
2013-06-02 21:48:00,69.6,69.6,29.80,SSE,159,0.0,0.0,100,0.00,,,0.02,Wunderground v.1.15,2013-06-03 01:48:00,
2013-06-02 21:58:00,69.3,69.3,29.81,SSE,159,0.0,0.0,100,0.00,,,0.02,Wunderground v.1.15,2013-06-03 01:58:00,
2013-06-02 22:05:00,69.1,69.0,29.80,SSE,159,0.0,-999.0,100,-99.99,,,0.02,weatherlink.com 1.10,2013-06-03 02:05:00,
2013-06-02 22:13:00,68.8,68.8,29.80,SSE,159,0.0,0.0,100,0.00,,,0.02,Wunderground v.1.15,2013-06-03 02:13:00,
2013-06-02 22:18:00,68.7,68.7,29.81,SSE,159,0.0,0.0,100,0.00,,,0.02,Wunderground v.1.15,2013-06-03 02:18:00,
2013-06-02 22:23:00,68.6,68.6,29.81,SSE,159,0.0,0.0,100,0.00,,,0.02,Wunderground v.1.15,2013-06-03 02:23:00,
2013-06-02 22:33:00,68.4,68.4,29.80,SSE,159,0.0,0.0,100,0.00,,,0.02,Wunderground v.1.15,2013-06-03 02:33:00,
2013-06-02 22:38:00,68.4,68.4,29.80,SSE,159,0.0,0.0,100,0.00,,,0.02,Wunderground v.1.15,2013-06-03 02:38:00,
2013-06-02 22:43:00,68.3,68.3,29.81,SSE,159,0.0,0.0,100,0.00,,,0.02,Wunderground v.1.15,2013-06-03 02:43:00,
2013-06-02 22:51:00,68.1,68.0,29.81,SSE,159,0.0,-999.0,100,-99.99,,,0.02,weatherlink.com 1.10,2013-06-03 02:51:00,
2013-06-02 22:58:00,68.0,68.0,29.81,SSE,159,0.0,0.0,100,0.00,,,0.02,Wunderground v.1.15,2013-06-03 02:58:00,
2013-06-02 23:03:00,67.9,67.9,29.80,SSE,159,0.0,0.0,100,0.00,,,0.02,Wunderground v.1.15,2013-06-03 03:03:00,
2013-06-02 23:08:00,67.9,67.9,29.80,SSE,159,0.0,0.0,100,0.00,,,0.02,Wunderground v.1.15,2013-06-03 03:08:00,
2013-06-02 23:18:00,67.8,67.8,29.80,SSE,159,0.0,0.0,100,0.00,,,0.02,Wunderground v.1.15,2013-06-03 03:18:00,
2013-06-02 23:23:00,67.8,67.8,29.80,SSE,159,0.0,0.0,100,0.00,,,0.02,Wunderground v.1.15,2013-06-03 03:23:00,
2013-06-02 23:28:00,67.8,67.8,29.80,SSE,159,0.0,0.0,100,0.00,,,0.02,Wunderground v.1.15,2013-06-03 03:28:00,
2013-06-02 23:38:00,67.8,68.0,29.81,SSE,159,0.0,-999.0,100,-99.99,,,0.02,weatherlink.com 1.10,2013-06-03 03:38:00,
2013-06-02 23:43:00,67.8,67.8,29.81,SSE,159,0.0,0.0,100,0.00,,,0.02,Wunderground v.1.15,2013-06-03 03:43:00,
2013-06-02 23:52:00,67.8,68.0,29.81,West,264,0.0,-999.0,100,-99.99,,,0.02,weatherlink.com 1.10,2013-06-03 03:52:00,
2013-06-02 23:58:00,67.7,67.7,29.81,ESE,102,1.0,1.0,100,0.83,,,0.16,Wunderground v.1.15,2013-06-03 03:58:00,